Buffalo, NY

8:25 AM EDT on April 29, 2017 (GMT -0400)
Buffalo Niagara International

Weather History for KBUF - February, 2013

Change the Weather History Date:

Tuesday, February 5, 2013

  Actual Average Record
Temperature  
Mean Temperature 21 °F 25 °F  
Max Temperature 27 °F 32 °F 60 °F (1890)
Min Temperature 15 °F 18 °F -12 °F (1918)
Degree Days  
Heating Degree Days 44 40  
Month to date heating degree days 234 200  
Since 1 July heating degree days 3472 3859  
Cooling Degree Days 0 0  
Month to date cooling degree days 0 0  
Year to date cooling degree days 0 0  
Moisture  
Dew Point 15 °F    
Average Humidity 72    
Maximum Humidity 88    
Minimum Humidity 55    
Precipitation  
Precipitation T in 0.09 in 0.77 in (2008)
Month to date precipitation 0.30 0.44  
Year to date precipitation 2.80 3.62  
Snow  
Snow 0.10 in 0.70 in 8.80 in (2014)
Month to date snowfall 8.8 3.5  
Since 1 July snowfall 37.0 65.0  
Snow Depth 3.00 in    
Sea Level Pressure  
Sea Level Pressure 29.90 in    
Wind  
Wind Speed 5 mph (WSW)    
Max Wind Speed 20 mph    
Max Gust Speed 25 mph    
Visibility 9 miles    
Events Snow    
T = Trace of Precipitation, MM = Missing Value Source: NWS Daily Summary

Daily Weather History Graph

Daily Weather History Graph

Search for Another Location

Airport or City:

Trip Planner

Search our weather history database for the weather conditions in past years. The results will help you decide how hot, cold, wet, or windy it might be!

Date:

Astronomy

Feb. 05, 2013 Rise Set
Actual Time 7:25 AM EST 5:33 PM EST
Civil Twilight 6:55 AM EST 6:03 PM EST
Nautical Twilight 6:21 AM EST 6:36 PM EST
Astronomical Twilight 5:48 AM EST 7:10 PM EST
Moon 3:07 AM EST (2/5) 12:46 PM EST (2/5)
Length of Visible Light 11h 07m
Length of Day
10h 08m
Waning Crescent, 27% of the Moon is Illuminated
Feb 5
Waning Crescent
Feb 10
New
Feb 17
First Quarter
Feb 25
Full
Mar 4
Last Quarter

Hourly Weather History & Observations

Time (EST) Temp. Windchill Dew Point Humidity Pressure Visibility Wind Dir Wind Speed Gust Speed Precip Events Conditions
12:54 AM 19.0 °F - 12.9 °F 77% 29.94 in 9.0 mi Calm Calm - 0.00 in Snow Light Snow
1:54 AM 19.0 °F - 12.0 °F 74% 29.94 in 9.0 mi Calm Calm - 0.00 in Snow Light Snow
2:54 AM 18.0 °F 11.1 °F 10.0 °F 71% 29.94 in 9.0 mi NW 4.6 mph - 0.00 in Snow Light Snow
3:54 AM 17.1 °F 11.7 °F 12.0 °F 81% 29.93 in 8.0 mi North 3.5 mph - 0.00 in Snow Light Snow
4:54 AM 16.0 °F - 12.0 °F 84% 29.95 in 9.0 mi Calm Calm - 0.00 in Snow Light Snow
5:54 AM 15.1 °F 9.4 °F 12.0 °F 88% 29.96 in 7.0 mi NE 3.5 mph - 0.00 in Snow Light Snow
6:54 AM 15.1 °F 9.4 °F 12.0 °F 88% 29.95 in 8.0 mi East 3.5 mph - 0.00 in Snow Light Snow
7:54 AM 16.0 °F 8.8 °F 12.0 °F 84% 29.95 in 8.0 mi ESE 4.6 mph - 0.00 in Snow Light Snow
8:03 AM 15.8 °F 8.6 °F 12.2 °F 86% 29.91 in 10.0 mi East 4.6 mph - 0.00 in   Mostly Cloudy
8:54 AM 16.0 °F - 10.9 °F 81% 29.96 in 10.0 mi Calm Calm - 0.00 in   Mostly Cloudy
9:54 AM 19.9 °F - 12.9 °F 74% 29.96 in 10.0 mi Calm Calm - N/A   Mostly Cloudy
10:54 AM 23.0 °F - 12.9 °F 65% 29.94 in 10.0 mi Calm Calm - N/A   Overcast
11:54 AM 26.1 °F - 12.0 °F 55% 29.92 in 10.0 mi Calm Calm - N/A   Overcast
12:54 PM 24.1 °F 18.2 °F 12.0 °F 60% 29.90 in 10.0 mi WSW 4.6 mph - N/A   Mostly Cloudy
1:54 PM 25.0 °F 18.1 °F 12.9 °F 60% 29.88 in 10.0 mi SW 5.8 mph - N/A   Overcast
2:54 PM 25.0 °F 18.1 °F 12.9 °F 60% 29.85 in 10.0 mi SSW 5.8 mph - N/A   Overcast
3:54 PM 25.0 °F 16.3 °F 12.9 °F 60% 29.86 in 10.0 mi SW 8.1 mph - N/A   Mostly Cloudy
4:54 PM 25.0 °F 16.3 °F 14.0 °F 63% 29.86 in 10.0 mi SW 8.1 mph - N/A   Mostly Cloudy
5:54 PM 24.1 °F 14.4 °F 16.0 °F 71% 29.88 in 10.0 mi WSW 9.2 mph - N/A   Mostly Cloudy
6:54 PM 25.0 °F 18.1 °F 18.0 °F 75% 29.88 in 10.0 mi WSW 5.8 mph - N/A   Mostly Cloudy
7:29 PM 24.8 °F 19.1 °F 19.4 °F 80% 29.85 in 10.0 mi WSW 4.6 mph - N/A   Overcast
7:54 PM 25.0 °F 15.5 °F 19.0 °F 78% 29.89 in 10.0 mi West 9.2 mph - N/A   Overcast
8:54 PM 25.0 °F 14.8 °F 18.0 °F 75% 29.88 in 10.0 mi WSW 10.4 mph - 0.00 in Snow Light Snow
9:52 PM 26.6 °F 16.2 °F 19.4 °F 74% 29.85 in 9.0 mi SW 11.5 mph - 0.00 in Snow Light Snow
9:54 PM 26.1 °F 15.0 °F 21.0 °F 81% 29.88 in 9.0 mi SW 12.7 mph - 0.00 in Snow Light Snow
10:47 PM 26.6 °F 15.2 °F 21.2 °F 80% 29.84 in 4.0 mi SSW 13.8 mph - 0.00 in Snow Light Snow
10:54 PM 26.1 °F 14.5 °F 21.0 °F 81% 29.88 in 5.0 mi SW 13.8 mph - 0.00 in Snow Light Snow
11:29 PM 26.6 °F 14.7 °F 21.2 °F 80% 29.84 in 2.0 mi WSW 15.0 mph 24.2 mph 0.00 in Snow Light Snow
11:43 PM 26.6 °F 13.4 °F 21.2 °F 80% 29.85 in 7.0 mi WSW 18.4 mph 24.2 mph 0.00 in Snow Light Snow
11:50 PM 26.6 °F 15.2 °F 21.2 °F 80% 29.85 in 9.0 mi WSW 13.8 mph 24.2 mph 0.00 in Snow Light Snow
11:54 PM 26.1 °F 13.6 °F 21.9 °F 84% 29.89 in 9.0 mi WSW 16.1 mph 21.9 mph 0.00 in Snow Light Snow